パンスターズ彗星

C/2019 A5 ( PanSTARRS )

English version
Home page
Updated on February 19, 2020

---------------------------------------------------------------------

・ プロフィール

発見日 2019年1月4日
発見光度 20.4等
発見者 Pan-STARRS 1 telescope (Haleakala)

・ 写真集

・ 軌道要素

Epoch 2019 June 6.0 TT = JDT 2458640.5
T 2019 June  9.45307 TT                                 Bell
q   6.3241630            (2000.0)            P               Q
n   0.00978153     Peri.  356.04031     -0.81852299     -0.26739171
a  21.6536777      Node   146.61935     +0.54919144     -0.62389670
e   0.7079405      Incl.   67.53621     +0.16854936     +0.73433955
P 101
From 56 observations 2019 Jan. 4-2020 Feb. 2, mean residual 0".3.

・ 光度変化

        m1 = 9.0 + 5 logΔ + 10.0 log r

---------------------------------------------------------------------

軌道要素はM.P.E.C. 2020-C98に掲載されたものです。
光度グラフはComet for Windowsで作成したものです。

---------------------------------------------------------------------

Copyright(C) Seiichi Yoshida (comet@aerith.net). All rights reserved.